Time,TemperatureF,DewpointF,PressureIn,WindDirection,WindDirectionDegrees,WindSpeedMPH,WindSpeedGustMPH,Humidity,HourlyPrecipIn,Conditions,Clouds,dailyrainin,SolarRadiationWatts/m^2,SoftwareType,DateUTC
2013-02-16 00:03:00,41.7,21.9,30.27,ENE,68,1.0,2.0,45,0.00,,,0.00,0.0,meteohub,2013-02-16 07:03:00,
2013-02-16 00:08:00,42.3,21.9,30.27,ENE,68,0.0,2.0,44,0.00,,,0.00,0.0,meteohub,2013-02-16 07:08:00,
2013-02-16 00:13:00,42.4,22.1,30.27,ENE,68,0.0,2.0,44,0.00,,,0.00,0.0,meteohub,2013-02-16 07:13:00,
2013-02-16 00:18:00,43.5,20.8,30.27,ENE,67,2.0,2.0,40,0.00,,,0.00,0.0,meteohub,2013-02-16 07:18:00,
2013-02-16 00:23:00,44.4,20.5,30.28,ENE,67,1.0,4.0,38,0.00,,,0.00,0.0,meteohub,2013-02-16 07:23:00,
2013-02-16 00:28:00,44.8,22.5,30.27,ENE,67,0.0,4.0,41,0.00,,,0.00,0.0,meteohub,2013-02-16 07:28:00,
2013-02-16 00:33:00,44.4,23.9,30.27,ENE,67,2.0,4.0,44,0.00,,,0.00,0.0,meteohub,2013-02-16 07:33:00,
2013-02-16 00:38:00,43.9,21.2,30.28,ENE,67,1.0,2.0,40,0.00,,,0.00,0.0,meteohub,2013-02-16 07:38:00,
2013-02-16 00:43:00,44.1,20.7,30.27,ENE,72,4.0,4.0,39,0.00,,,0.00,0.0,meteohub,2013-02-16 07:43:00,
2013-02-16 00:48:00,45.3,19.9,30.28,ENE,62,2.0,4.0,36,0.00,,,0.00,0.0,meteohub,2013-02-16 07:48:00,
2013-02-16 00:53:00,45.9,19.8,30.28,ENE,62,2.0,5.0,35,0.00,,,0.00,0.0,meteohub,2013-02-16 07:53:00,
2013-02-16 00:59:00,46.0,20.5,30.28,ENE,62,2.0,5.0,36,0.00,,,0.00,0.0,meteohub,2013-02-16 07:59:00,
2013-02-16 01:04:00,46.2,20.1,30.28,ENE,61,1.0,4.0,35,0.00,,,0.00,0.0,meteohub,2013-02-16 08:04:00,
2013-02-16 01:09:00,46.2,20.1,30.27,ENE,61,2.0,5.0,35,0.00,,,0.00,0.0,meteohub,2013-02-16 08:09:00,
2013-02-16 01:14:00,46.2,19.4,30.27,ENE,60,3.0,5.0,34,0.00,,,0.00,0.0,meteohub,2013-02-16 08:14:00,
2013-02-16 01:19:00,46.8,19.9,30.27,ENE,63,3.0,4.0,34,0.00,,,0.00,0.0,meteohub,2013-02-16 08:19:00,
2013-02-16 01:24:00,47.5,19.0,30.27,ENE,76,4.0,4.0,32,0.00,,,0.00,0.0,meteohub,2013-02-16 08:24:00,
2013-02-16 01:29:00,48.6,19.2,30.28,ENE,61,3.0,5.0,31,0.00,,,0.00,0.0,meteohub,2013-02-16 08:29:00,
2013-02-16 01:34:00,48.7,18.0,30.27,ENE,61,4.0,7.0,29,0.00,,,0.00,0.0,meteohub,2013-02-16 08:34:00,
2013-02-16 01:39:00,48.9,18.9,30.28,ENE,59,2.0,7.0,30,0.00,,,0.00,0.0,meteohub,2013-02-16 08:39:00,
2013-02-16 01:44:00,48.6,19.2,30.28,ENE,61,1.0,7.0,31,0.00,,,0.00,0.0,meteohub,2013-02-16 08:44:00,
2013-02-16 01:49:00,48.4,18.3,30.28,ENE,66,2.0,6.0,30,0.00,,,0.00,0.0,meteohub,2013-02-16 08:49:00,
2013-02-16 01:54:00,48.4,18.3,30.28,ENE,77,2.0,5.0,30,0.00,,,0.00,0.0,meteohub,2013-02-16 08:54:00,
2013-02-16 01:59:00,48.6,17.8,30.28,ENE,70,2.0,5.0,29,0.00,,,0.00,0.0,meteohub,2013-02-16 08:59:00,
2013-02-16 02:04:00,49.3,17.6,30.28,East,79,5.0,5.0,28,0.00,,,0.00,0.0,meteohub,2013-02-16 09:04:00,
2013-02-16 02:09:00,50.2,17.4,30.28,ENE,75,3.0,5.0,27,0.00,,,0.00,0.0,meteohub,2013-02-16 09:09:00,
2013-02-16 02:14:00,51.1,17.4,30.28,East,80,3.0,5.0,26,0.00,,,0.00,0.0,meteohub,2013-02-16 09:14:00,
2013-02-16 02:19:00,51.4,17.6,30.28,East,84,2.0,8.0,26,0.00,,,0.00,0.0,meteohub,2013-02-16 09:19:00,
2013-02-16 02:24:00,51.4,17.6,30.28,East,84,5.0,8.0,26,0.00,,,0.00,0.0,meteohub,2013-02-16 09:24:00,
2013-02-16 02:29:00,51.4,16.7,30.28,ENE,73,3.0,8.0,25,0.00,,,0.00,0.0,meteohub,2013-02-16 09:29:00,
2013-02-16 02:34:00,51.4,16.7,30.28,NE,53,4.0,9.0,25,0.00,,,0.00,0.0,meteohub,2013-02-16 09:34:00,
2013-02-16 02:39:00,51.6,16.9,30.28,East,84,7.0,9.0,25,0.00,,,0.00,0.0,meteohub,2013-02-16 09:39:00,
2013-02-16 02:44:00,52.3,16.5,30.27,ENE,62,7.0,9.0,24,0.00,,,0.00,0.0,meteohub,2013-02-16 09:44:00,
2013-02-16 02:49:00,52.7,16.0,30.27,NE,53,3.0,9.0,23,0.00,,,0.00,0.0,meteohub,2013-02-16 09:49:00,
2013-02-16 02:54:00,53.2,15.4,30.27,NE,43,3.0,9.0,22,0.00,,,0.00,0.0,meteohub,2013-02-16 09:54:00,
2013-02-16 02:59:00,54.0,14.9,30.27,ENE,58,4.0,9.0,21,0.00,,,0.00,0.0,meteohub,2013-02-16 09:59:00,
2013-02-16 03:04:00,55.2,14.9,30.27,NE,46,2.0,9.0,20,0.00,,,0.00,0.0,meteohub,2013-02-16 10:04:00,
2013-02-16 03:09:00,55.9,14.2,30.27,ESE,102,5.0,10.0,19,0.00,,,0.00,0.0,meteohub,2013-02-16 10:09:00,
2013-02-16 03:15:00,56.5,14.7,30.27,ENE,75,5.0,10.0,19,0.00,,,0.00,0.0,meteohub,2013-02-16 10:15:00,
2013-02-16 03:20:00,56.7,13.6,30.27,ENE,63,4.0,11.0,18,0.00,,,0.00,0.0,meteohub,2013-02-16 10:20:00,
2013-02-16 03:25:00,57.0,14.0,30.26,ENE,71,9.0,11.0,18,0.00,,,0.00,0.0,meteohub,2013-02-16 10:25:00,
2013-02-16 03:30:00,57.0,12.6,30.26,ENE,61,10.0,11.0,17,0.00,,,0.00,0.0,meteohub,2013-02-16 10:30:00,
2013-02-16 03:35:00,57.4,12.9,30.25,ENE,77,7.0,13.0,17,0.00,,,0.00,0.0,meteohub,2013-02-16 10:35:00,
2013-02-16 03:40:00,57.2,12.7,30.25,NE,46,11.0,13.0,17,0.00,,,0.00,0.0,meteohub,2013-02-16 10:40:00,
2013-02-16 03:45:00,57.6,13.1,30.25,ENE,78,4.0,13.0,17,0.00,,,0.00,0.0,meteohub,2013-02-16 10:45:00,
2013-02-16 03:50:00,57.9,12.0,30.24,NNE,32,3.0,17.0,16,0.00,,,0.00,0.0,meteohub,2013-02-16 10:50:00,
2013-02-16 03:55:00,58.3,12.2,30.24,SE,126,6.0,17.0,16,0.00,,,0.00,0.0,meteohub,2013-02-16 10:55:00,
2013-02-16 04:00:00,58.5,12.4,30.24,East,93,5.0,16.0,16,0.00,,,0.00,0.0,meteohub,2013-02-16 11:00:00,
2013-02-16 04:05:00,58.5,13.8,30.24,NE,55,8.0,17.0,17,0.00,,,0.00,0.0,meteohub,2013-02-16 11:05:00,
2013-02-16 04:10:00,58.5,13.8,30.24,East,82,5.0,17.0,17,0.00,,,0.00,0.0,meteohub,2013-02-16 11:10:00,
2013-02-16 04:15:00,58.5,13.8,30.24,East,92,7.0,19.0,17,0.00,,,0.00,0.0,meteohub,2013-02-16 11:15:00,
2013-02-16 04:20:00,58.5,13.8,30.23,NE,51,16.0,19.0,17,0.00,,,0.00,0.0,meteohub,2013-02-16 11:20:00,
2013-02-16 04:25:00,58.6,14.0,30.23,ENE,76,7.0,24.0,17,0.00,,,0.00,0.0,meteohub,2013-02-16 11:25:00,
2013-02-16 04:30:00,58.6,14.0,30.23,NE,53,4.0,24.0,17,0.00,,,0.00,0.0,meteohub,2013-02-16 11:30:00,
2013-02-16 04:35:00,58.3,13.6,30.23,ENE,67,7.0,18.0,17,0.00,,,0.00,0.0,meteohub,2013-02-16 11:35:00,
2013-02-16 04:40:00,58.3,13.6,30.24,NE,55,6.0,18.0,17,0.00,,,0.00,0.0,meteohub,2013-02-16 11:40:00,
2013-02-16 04:45:00,58.3,13.6,30.24,ENE,78,13.0,20.0,17,0.00,,,0.00,0.0,meteohub,2013-02-16 11:45:00,
2013-02-16 04:50:00,58.1,13.5,30.23,NNE,24,8.0,20.0,17,0.00,,,0.00,0.0,meteohub,2013-02-16 11:50:00,
2013-02-16 04:55:00,58.1,12.2,30.23,ENE,59,10.0,20.0,16,0.00,,,0.00,0.0,meteohub,2013-02-16 11:55:00,
2013-02-16 05:00:00,58.3,10.8,30.23,East,88,5.0,20.0,15,0.00,,,0.00,0.0,meteohub,2013-02-16 12:00:00,
2013-02-16 05:05:00,58.1,10.6,30.23,ESE,111,2.0,15.0,15,0.00,,,0.00,0.0,meteohub,2013-02-16 12:05:00,
2013-02-16 05:10:00,58.1,9.1,30.23,East,91,8.0,15.0,14,0.00,,,0.00,0.0,meteohub,2013-02-16 12:10:00,
2013-02-16 05:15:00,58.8,6.3,30.23,ESE,106,4.0,14.0,12,0.00,,,0.00,0.0,meteohub,2013-02-16 12:15:00,
2013-02-16 05:20:00,59.7,5.0,30.23,SE,137,9.0,17.0,11,0.00,,,0.00,0.0,meteohub,2013-02-16 12:20:00,
2013-02-16 05:25:00,60.3,5.5,30.22,ENE,71,14.0,19.0,11,0.00,,,0.00,0.0,meteohub,2013-02-16 12:25:00,
2013-02-16 05:30:00,60.4,3.6,30.22,ENE,61,10.0,19.0,10,0.00,,,0.00,0.0,meteohub,2013-02-16 12:30:00,
2013-02-16 05:35:00,60.6,3.7,30.22,ENE,62,8.0,19.0,10,0.00,,,0.00,0.0,meteohub,2013-02-16 12:35:00,
2013-02-16 05:40:00,60.6,1.4,30.22,NE,43,13.0,22.0,9,0.00,,,0.00,0.0,meteohub,2013-02-16 12:40:00,
2013-02-16 05:45:00,61.0,1.8,30.22,ENE,69,22.0,22.0,9,0.00,,,0.00,0.0,meteohub,2013-02-16 12:45:00,
2013-02-16 05:50:00,61.0,1.8,30.22,NE,53,8.0,23.0,9,0.00,,,0.00,0.0,meteohub,2013-02-16 12:50:00,
2013-02-16 05:55:00,60.4,1.2,30.22,ENE,65,15.0,23.0,9,0.00,,,0.00,0.0,meteohub,2013-02-16 12:55:00,
2013-02-16 06:00:00,60.4,3.6,30.22,ENE,76,7.0,23.0,10,0.00,,,0.00,0.0,meteohub,2013-02-16 13:00:00,
2013-02-16 06:05:00,60.1,3.4,30.22,ENE,76,7.0,19.0,10,0.00,,,0.00,0.0,meteohub,2013-02-16 13:05:00,
2013-02-16 06:10:00,59.9,3.2,30.22,NE,55,10.0,19.0,10,0.00,,,0.00,0.0,meteohub,2013-02-16 13:10:00,
2013-02-16 06:15:00,59.9,5.2,30.22,ENE,57,12.0,19.0,11,0.00,,,0.00,0.0,meteohub,2013-02-16 13:15:00,
2013-02-16 06:20:00,59.7,5.0,30.22,NE,46,7.0,21.0,11,0.00,,,0.00,0.0,meteohub,2013-02-16 13:20:00,
2013-02-16 06:25:00,59.5,5.0,30.22,NE,51,5.0,18.0,11,0.00,,,0.00,0.0,meteohub,2013-02-16 13:25:00,
2013-02-16 06:30:00,59.5,5.0,30.22,ENE,57,2.0,16.0,11,0.00,,,0.00,0.0,meteohub,2013-02-16 13:30:00,
2013-02-16 06:35:00,59.2,4.6,30.22,ENE,59,5.0,16.0,11,0.00,,,0.00,0.0,meteohub,2013-02-16 13:35:00,
2013-02-16 06:40:00,59.2,4.6,30.22,ENE,60,4.0,16.0,11,0.00,,,0.00,0.0,meteohub,2013-02-16 13:40:00,
2013-02-16 06:45:00,59.0,4.5,30.22,East,79,8.0,12.0,11,0.00,,,0.00,0.0,meteohub,2013-02-16 13:45:00,
2013-02-16 06:50:00,58.8,4.5,30.22,ENE,63,7.0,12.0,11,0.00,,,0.00,0.0,meteohub,2013-02-16 13:50:00,
2013-02-16 06:55:00,59.0,6.4,30.23,ENE,57,4.0,15.0,12,0.00,,,0.00,0.0,meteohub,2013-02-16 13:55:00,
2013-02-16 07:00:00,59.0,6.4,30.22,ENE,64,4.0,15.0,12,0.00,,,0.00,0.0,meteohub,2013-02-16 14:00:00,
2013-02-16 07:05:00,58.6,6.1,30.22,ENE,74,2.0,15.0,12,0.00,,,0.00,7.0,meteohub,2013-02-16 14:05:00,
2013-02-16 07:10:00,58.6,6.1,30.22,NE,37,2.0,11.0,12,0.00,,,0.00,9.0,meteohub,2013-02-16 14:10:00,
2013-02-16 07:15:00,58.6,6.1,30.23,NE,36,4.0,11.0,12,0.00,,,0.00,12.0,meteohub,2013-02-16 14:15:00,
2013-02-16 07:20:00,58.8,6.3,30.23,NNE,29,10.0,14.0,12,0.00,,,0.00,14.0,meteohub,2013-02-16 14:20:00,
2013-02-16 07:25:00,59.2,6.6,30.23,NE,44,9.0,18.0,12,0.00,,,0.00,18.0,meteohub,2013-02-16 14:25:00,
2013-02-16 07:30:00,59.4,6.8,30.23,NE,34,10.0,18.0,12,0.00,,,0.00,21.0,meteohub,2013-02-16 14:30:00,
2013-02-16 07:35:00,59.5,8.6,30.24,ENE,59,10.0,18.0,13,0.00,,,0.00,23.0,meteohub,2013-02-16 14:35:00,
2013-02-16 07:40:00,59.5,8.6,30.23,ENE,76,11.0,16.0,13,0.00,,,0.00,46.0,meteohub,2013-02-16 14:40:00,
2013-02-16 07:45:00,59.5,8.6,30.23,NE,55,7.0,16.0,13,0.00,,,0.00,77.0,meteohub,2013-02-16 14:45:00,
2013-02-16 07:50:00,59.9,9.0,30.24,ENE,65,7.0,16.0,13,0.00,,,0.00,98.0,meteohub,2013-02-16 14:50:00,
2013-02-16 07:55:00,60.3,9.1,30.24,East,92,8.0,16.0,13,0.00,,,0.00,121.0,meteohub,2013-02-16 14:55:00,
2013-02-16 08:00:00,60.4,9.3,30.24,ENE,57,8.0,16.0,13,0.00,,,0.00,144.0,meteohub,2013-02-16 15:00:00,
2013-02-16 08:06:00,60.6,9.5,30.24,NE,45,5.0,13.0,13,0.00,,,0.00,169.0,meteohub,2013-02-16 15:06:00,
2013-02-16 08:10:00,60.6,9.5,30.24,ENE,67,4.0,14.0,13,0.00,,,0.00,193.0,meteohub,2013-02-16 15:10:00,
2013-02-16 08:16:00,60.6,11.1,30.24,ESE,104,4.0,16.0,14,0.00,,,0.00,216.0,meteohub,2013-02-16 15:16:00,
2013-02-16 08:21:00,61.0,9.7,30.25,ENE,66,10.0,16.0,13,0.00,,,0.00,237.0,meteohub,2013-02-16 15:21:00,
2013-02-16 08:26:00,61.3,10.0,30.25,NE,51,4.0,16.0,13,0.00,,,0.00,257.0,meteohub,2013-02-16 15:26:00,
2013-02-16 08:31:00,61.7,12.0,30.25,NE,54,4.0,15.0,14,0.00,,,0.00,276.0,meteohub,2013-02-16 15:31:00,
2013-02-16 08:36:00,61.9,12.2,30.25,ESE,106,5.0,15.0,14,0.00,,,0.00,294.0,meteohub,2013-02-16 15:36:00,
2013-02-16 08:41:00,62.1,12.2,30.25,ESE,121,5.0,12.0,14,0.00,,,0.00,311.0,meteohub,2013-02-16 15:41:00,
2013-02-16 08:46:00,62.4,10.9,30.25,NE,34,3.0,16.0,13,0.00,,,0.00,330.0,meteohub,2013-02-16 15:46:00,
2013-02-16 08:51:00,63.1,9.7,30.25,ENE,70,2.0,16.0,12,0.00,,,0.00,350.0,meteohub,2013-02-16 15:51:00,
2013-02-16 08:56:00,63.9,10.2,30.25,East,87,3.0,16.0,12,0.00,,,0.00,366.0,meteohub,2013-02-16 15:56:00,
2013-02-16 09:01:00,64.2,14.0,30.25,NE,40,4.0,11.0,14,0.00,,,0.00,383.0,meteohub,2013-02-16 16:01:00,
2013-02-16 09:06:00,64.0,13.8,30.25,East,92,3.0,10.0,14,0.00,,,0.00,401.0,meteohub,2013-02-16 16:06:00,
2013-02-16 09:11:00,63.7,15.1,30.25,East,101,7.0,10.0,15,0.00,,,0.00,418.0,meteohub,2013-02-16 16:11:00,
2013-02-16 09:16:00,63.7,11.8,30.25,East,96,8.0,13.0,13,0.00,,,0.00,438.0,meteohub,2013-02-16 16:16:00,
2013-02-16 09:21:00,64.0,13.8,30.25,ENE,67,7.0,13.0,14,0.00,,,0.00,466.0,meteohub,2013-02-16 16:21:00,
2013-02-16 09:26:00,64.4,14.2,30.25,ENE,58,8.0,12.0,14,0.00,,,0.00,469.0,meteohub,2013-02-16 16:26:00,
2013-02-16 09:31:00,64.8,10.9,30.25,ENE,78,11.0,16.0,12,0.00,,,0.00,487.0,meteohub,2013-02-16 16:31:00,
2013-02-16 09:36:00,64.8,10.9,30.25,NE,36,8.0,20.0,12,0.00,,,0.00,499.0,meteohub,2013-02-16 16:36:00,
2013-02-16 09:41:00,64.8,10.9,30.25,ENE,69,9.0,22.0,12,0.00,,,0.00,517.0,meteohub,2013-02-16 16:41:00,
2013-02-16 09:46:00,65.1,11.3,30.25,NE,55,24.0,24.0,12,0.00,,,0.00,533.0,meteohub,2013-02-16 16:46:00,
2013-02-16 09:51:00,64.9,9.1,30.25,NE,43,4.0,25.0,11,0.00,,,0.00,547.0,meteohub,2013-02-16 16:51:00,
2013-02-16 09:56:00,65.1,9.3,30.25,NE,54,9.0,25.0,11,0.00,,,0.00,563.0,meteohub,2013-02-16 16:56:00,
2013-02-16 10:01:00,64.6,14.4,30.25,ESE,107,9.0,25.0,14,0.00,,,0.00,577.0,meteohub,2013-02-16 17:01:00,
2013-02-16 10:06:00,64.2,10.6,30.25,NE,47,5.0,18.0,12,0.00,,,0.00,592.0,meteohub,2013-02-16 17:06:00,
2013-02-16 10:11:00,64.4,12.4,30.25,NE,54,5.0,20.0,13,0.00,,,0.00,605.0,meteohub,2013-02-16 17:11:00,
2013-02-16 10:16:00,64.6,14.4,30.25,East,87,6.0,20.0,14,0.00,,,0.00,619.0,meteohub,2013-02-16 17:16:00,
2013-02-16 10:21:00,65.7,13.5,30.25,ENE,58,7.0,18.0,13,0.00,,,0.00,631.0,meteohub,2013-02-16 17:21:00,
2013-02-16 10:26:00,66.0,13.8,30.25,ESE,115,3.0,18.0,13,0.00,,,0.00,645.0,meteohub,2013-02-16 17:26:00,
2013-02-16 10:31:00,66.0,12.0,30.25,NE,47,9.0,16.0,12,0.00,,,0.00,654.0,meteohub,2013-02-16 17:31:00,
2013-02-16 10:36:00,66.0,13.8,30.25,ESE,114,8.0,17.0,13,0.00,,,0.00,668.0,meteohub,2013-02-16 17:36:00,
2013-02-16 10:41:00,66.4,14.0,30.25,ESE,110,9.0,17.0,13,0.00,,,0.00,680.0,meteohub,2013-02-16 17:41:00,
2013-02-16 10:46:00,66.0,12.0,30.25,NE,46,10.0,17.0,12,0.00,,,0.00,693.0,meteohub,2013-02-16 17:46:00,
2013-02-16 10:51:00,65.8,13.6,30.24,East,82,11.0,20.0,13,0.00,,,0.00,701.0,meteohub,2013-02-16 17:51:00,
2013-02-16 10:56:00,66.4,12.2,30.24,ESE,123,7.0,20.0,12,0.00,,,0.00,712.0,meteohub,2013-02-16 17:56:00,
2013-02-16 11:01:00,66.4,12.2,30.24,ENE,73,5.0,21.0,12,0.00,,,0.00,722.0,meteohub,2013-02-16 18:01:00,
2013-02-16 11:06:00,66.6,12.4,30.23,NE,53,10.0,21.0,12,0.00,,,0.00,729.0,meteohub,2013-02-16 18:06:00,
2013-02-16 11:11:00,66.7,12.6,30.24,NE,38,5.0,21.0,12,0.00,,,0.00,740.0,meteohub,2013-02-16 18:11:00,
2013-02-16 11:16:00,67.1,12.7,30.24,ENE,60,12.0,20.0,12,0.00,,,0.00,747.0,meteohub,2013-02-16 18:16:00,
2013-02-16 11:21:00,67.5,13.1,30.24,NE,51,12.0,20.0,12,0.00,,,0.00,754.0,meteohub,2013-02-16 18:21:00,
2013-02-16 11:26:00,67.5,13.1,30.23,ENE,57,11.0,20.0,12,0.00,,,0.00,763.0,meteohub,2013-02-16 18:26:00,
2013-02-16 11:31:00,67.5,11.1,30.23,NNE,18,10.0,20.0,11,0.00,,,0.00,772.0,meteohub,2013-02-16 18:31:00,
2013-02-16 11:36:00,67.5,11.1,30.22,East,80,11.0,25.0,11,0.00,,,0.00,777.0,meteohub,2013-02-16 18:36:00,
2013-02-16 11:41:00,68.2,11.7,30.22,SE,126,6.0,25.0,11,0.00,,,0.00,784.0,meteohub,2013-02-16 18:41:00,
2013-02-16 11:46:00,68.4,11.8,30.22,ESE,112,8.0,25.0,11,0.00,,,0.00,788.0,meteohub,2013-02-16 18:46:00,
2013-02-16 11:51:00,68.5,9.9,30.22,East,93,6.0,22.0,10,0.00,,,0.00,793.0,meteohub,2013-02-16 18:51:00,
2013-02-16 11:56:00,68.5,11.8,30.22,ENE,62,7.0,22.0,11,0.00,,,0.00,798.0,meteohub,2013-02-16 18:56:00,
2013-02-16 12:02:00,68.7,9.9,30.21,ENE,61,10.0,21.0,10,0.00,,,0.00,805.0,meteohub,2013-02-16 19:02:00,
2013-02-16 12:07:00,68.7,12.0,30.21,ENE,72,14.0,21.0,11,0.00,,,0.00,807.0,meteohub,2013-02-16 19:07:00,
2013-02-16 12:12:00,69.1,12.4,30.20,ENE,61,9.0,21.0,11,0.00,,,0.00,810.0,meteohub,2013-02-16 19:12:00,
2013-02-16 12:17:00,69.4,10.4,30.20,ENE,59,5.0,25.0,10,0.00,,,0.00,812.0,meteohub,2013-02-16 19:17:00,
2013-02-16 12:22:00,69.6,10.6,30.19,ENE,70,12.0,25.0,10,0.00,,,0.00,816.0,meteohub,2013-02-16 19:22:00,
2013-02-16 12:27:00,69.6,8.2,30.19,East,95,11.0,25.0,9,0.00,,,0.00,814.0,meteohub,2013-02-16 19:27:00,
2013-02-16 12:32:00,69.4,10.4,30.19,East,100,9.0,24.0,10,0.00,,,0.00,819.0,meteohub,2013-02-16 19:32:00,
2013-02-16 12:37:00,69.8,8.4,30.19,East,94,7.0,24.0,9,0.00,,,0.00,819.0,meteohub,2013-02-16 19:37:00,
2013-02-16 12:42:00,70.2,8.6,30.18,East,96,18.0,24.0,9,0.00,,,0.00,819.0,meteohub,2013-02-16 19:42:00,
2013-02-16 12:47:00,70.2,8.6,30.17,East,90,11.0,20.0,9,0.00,,,0.00,821.0,meteohub,2013-02-16 19:47:00,
2013-02-16 12:52:00,70.3,8.8,30.17,East,82,14.0,24.0,9,0.00,,,0.00,817.0,meteohub,2013-02-16 19:52:00,
2013-02-16 12:57:00,70.3,8.8,30.17,East,83,5.0,24.0,9,0.00,,,0.00,816.0,meteohub,2013-02-16 19:57:00,
2013-02-16 13:02:00,70.3,8.8,30.17,ENE,69,8.0,24.0,9,0.00,,,0.00,816.0,meteohub,2013-02-16 20:02:00,
2013-02-16 13:07:00,70.5,9.0,30.16,ENE,73,9.0,21.0,9,0.00,,,0.00,812.0,meteohub,2013-02-16 20:07:00,
2013-02-16 13:12:00,70.7,9.1,30.16,ENE,60,15.0,23.0,9,0.00,,,0.00,812.0,meteohub,2013-02-16 20:12:00,
2013-02-16 13:17:00,71.1,9.3,30.16,SE,130,9.0,24.0,9,0.00,,,0.00,807.0,meteohub,2013-02-16 20:17:00,
2013-02-16 13:22:00,71.4,9.7,30.15,East,82,10.0,24.0,9,0.00,,,0.00,805.0,meteohub,2013-02-16 20:22:00,
2013-02-16 13:27:00,71.4,9.7,30.15,East,87,13.0,20.0,9,0.00,,,0.00,802.0,meteohub,2013-02-16 20:27:00,
2013-02-16 13:32:00,71.2,6.8,30.15,East,85,7.0,21.0,8,0.00,,,0.00,795.0,meteohub,2013-02-16 20:32:00,
2013-02-16 13:37:00,71.4,7.0,30.14,East,80,9.0,21.0,8,0.00,,,0.00,791.0,meteohub,2013-02-16 20:37:00,
2013-02-16 13:42:00,71.8,4.3,30.14,NE,36,12.0,21.0,7,0.00,,,0.00,786.0,meteohub,2013-02-16 20:42:00,
2013-02-16 13:47:00,71.8,7.3,30.14,ENE,69,4.0,19.0,8,0.00,,,0.00,780.0,meteohub,2013-02-16 20:47:00,
2013-02-16 13:52:00,72.0,4.5,30.14,NE,56,7.0,22.0,7,0.00,,,0.00,772.0,meteohub,2013-02-16 20:52:00,
2013-02-16 13:57:00,72.1,4.6,30.13,East,82,6.0,22.0,7,0.00,,,0.00,766.0,meteohub,2013-02-16 20:57:00,
2013-02-16 14:02:00,72.9,1.8,30.13,East,92,16.0,19.0,6,0.00,,,0.00,758.0,meteohub,2013-02-16 21:02:00,
2013-02-16 14:07:00,72.7,5.0,30.12,NE,37,11.0,19.0,7,0.00,,,0.00,751.0,meteohub,2013-02-16 21:07:00,
2013-02-16 14:12:00,72.5,4.8,30.12,NE,56,14.0,18.0,7,0.00,,,0.00,744.0,meteohub,2013-02-16 21:12:00,
2013-02-16 14:17:00,72.1,4.6,30.12,ENE,59,7.0,17.0,7,0.00,,,0.00,733.0,meteohub,2013-02-16 21:17:00,
2013-02-16 14:22:00,72.1,4.6,30.12,NE,34,6.0,22.0,7,0.00,,,0.00,724.0,meteohub,2013-02-16 21:22:00,
2013-02-16 14:27:00,72.5,4.8,30.11,ESE,103,7.0,22.0,7,0.00,,,0.00,714.0,meteohub,2013-02-16 21:27:00,
2013-02-16 14:31:00,72.9,5.2,30.11,NE,47,5.0,22.0,7,0.00,,,0.00,703.0,meteohub,2013-02-16 21:31:00,
2013-02-16 14:36:00,73.0,5.4,30.11,East,101,15.0,16.0,7,0.00,,,0.00,694.0,meteohub,2013-02-16 21:36:00,
2013-02-16 14:41:00,73.0,5.4,30.11,East,81,7.0,18.0,7,0.00,,,0.00,686.0,meteohub,2013-02-16 21:41:00,
2013-02-16 14:46:00,73.6,5.7,30.11,ENE,65,8.0,18.0,7,0.00,,,0.00,673.0,meteohub,2013-02-16 21:46:00,
2013-02-16 14:51:00,73.2,5.4,30.10,NE,51,5.0,18.0,7,0.00,,,0.00,661.0,meteohub,2013-02-16 21:51:00,
2013-02-16 14:56:00,73.0,5.4,30.10,ENE,61,4.0,18.0,7,0.00,,,0.00,649.0,meteohub,2013-02-16 21:56:00,
2013-02-16 15:01:00,73.6,5.7,30.10,NE,56,12.0,18.0,7,0.00,,,0.00,635.0,meteohub,2013-02-16 22:01:00,
2013-02-16 15:06:00,73.6,5.7,30.10,East,90,9.0,17.0,7,0.00,,,0.00,624.0,meteohub,2013-02-16 22:06:00,
2013-02-16 15:12:00,73.2,2.1,30.09,East,81,14.0,18.0,6,0.00,,,0.00,610.0,meteohub,2013-02-16 22:12:00,
2013-02-16 15:17:00,73.0,5.4,30.09,East,88,9.0,18.0,7,0.00,,,0.00,596.0,meteohub,2013-02-16 22:17:00,
2013-02-16 15:22:00,73.0,5.4,30.09,East,101,17.0,18.0,7,0.00,,,0.00,584.0,meteohub,2013-02-16 22:22:00,
2013-02-16 15:27:00,73.6,5.7,30.09,NNE,26,9.0,21.0,7,0.00,,,0.00,568.0,meteohub,2013-02-16 22:27:00,
2013-02-16 15:32:00,73.0,5.4,30.08,ESE,104,10.0,21.0,7,0.00,,,0.00,555.0,meteohub,2013-02-16 22:32:00,
2013-02-16 15:37:00,73.0,8.2,30.08,NE,51,6.0,19.0,8,0.00,,,0.00,538.0,meteohub,2013-02-16 22:37:00,
2013-02-16 15:42:00,73.6,8.6,30.08,ENE,71,9.0,19.0,8,0.00,,,0.00,522.0,meteohub,2013-02-16 22:42:00,
2013-02-16 15:47:00,73.9,5.9,30.08,ENE,68,12.0,19.0,7,0.00,,,0.00,506.0,meteohub,2013-02-16 22:47:00,
2013-02-16 15:52:00,73.9,5.9,30.08,ENE,75,9.0,14.0,7,0.00,,,0.00,494.0,meteohub,2013-02-16 22:52:00,
2013-02-16 15:57:00,73.8,5.9,30.07,East,83,3.0,16.0,7,0.00,,,0.00,478.0,meteohub,2013-02-16 22:57:00,
2013-02-16 16:02:00,73.8,5.9,30.07,NE,53,7.0,16.0,7,0.00,,,0.00,459.0,meteohub,2013-02-16 23:02:00,
2013-02-16 16:07:00,73.8,5.9,30.07,East,88,8.0,16.0,7,0.00,,,0.00,443.0,meteohub,2013-02-16 23:07:00,
2013-02-16 16:12:00,73.8,5.9,30.07,NNE,25,6.0,17.0,7,0.00,,,0.00,427.0,meteohub,2013-02-16 23:12:00,
2013-02-16 16:17:00,73.8,5.9,30.07,ENE,74,7.0,17.0,7,0.00,,,0.00,408.0,meteohub,2013-02-16 23:17:00,
2013-02-16 16:22:00,73.8,5.9,30.07,East,101,5.0,16.0,7,0.00,,,0.00,388.0,meteohub,2013-02-16 23:22:00,
2013-02-16 16:27:00,73.8,5.9,30.07,ESE,117,9.0,16.0,7,0.00,,,0.00,374.0,meteohub,2013-02-16 23:27:00,
2013-02-16 16:32:00,73.6,8.6,30.07,NE,47,4.0,17.0,8,0.00,,,0.00,355.0,meteohub,2013-02-16 23:32:00,
2013-02-16 16:37:00,73.8,5.9,30.06,East,95,2.0,17.0,7,0.00,,,0.00,338.0,meteohub,2013-02-16 23:37:00,
2013-02-16 16:42:00,73.6,8.6,30.07,NE,43,5.0,15.0,8,0.00,,,0.00,315.0,meteohub,2013-02-16 23:42:00,
2013-02-16 16:47:00,73.8,5.9,30.06,ENE,62,4.0,12.0,7,0.00,,,0.00,294.0,meteohub,2013-02-16 23:47:00,
2013-02-16 16:52:00,73.6,8.6,30.06,ENE,63,3.0,14.0,8,0.00,,,0.00,269.0,meteohub,2013-02-16 23:52:00,
2013-02-16 16:57:00,73.6,8.6,30.06,ENE,65,10.0,14.0,8,0.00,,,0.00,246.0,meteohub,2013-02-16 23:57:00,
2013-02-16 17:02:00,73.0,5.4,30.06,ESE,102,5.0,14.0,7,0.00,,,0.00,223.0,meteohub,2013-02-17 00:02:00,
2013-02-16 17:07:00,72.9,5.2,30.05,ENE,67,5.0,12.0,7,0.00,,,0.00,200.0,meteohub,2013-02-17 00:07:00,
2013-02-16 17:12:00,72.3,4.8,30.06,East,79,2.0,14.0,7,0.00,,,0.00,174.0,meteohub,2013-02-17 00:12:00,
2013-02-16 17:17:00,72.1,7.5,30.06,ENE,67,2.0,14.0,8,0.00,,,0.00,149.0,meteohub,2013-02-17 00:17:00,
2013-02-16 17:22:00,72.1,7.5,30.05,ENE,62,4.0,14.0,8,0.00,,,0.00,127.0,meteohub,2013-02-17 00:22:00,
2013-02-16 17:27:00,71.8,7.3,30.06,SE,127,5.0,12.0,8,0.00,,,0.00,105.0,meteohub,2013-02-17 00:27:00,
2013-02-16 17:32:00,71.2,6.8,30.06,ENE,64,8.0,15.0,8,0.00,,,0.00,84.0,meteohub,2013-02-17 00:32:00,
2013-02-16 17:37:00,70.9,6.6,30.05,ENE,75,5.0,15.0,8,0.00,,,0.00,65.0,meteohub,2013-02-17 00:37:00,
2013-02-16 17:42:00,70.3,6.3,30.06,ESE,116,4.0,17.0,8,0.00,,,0.00,33.0,meteohub,2013-02-17 00:42:00,
2013-02-16 17:47:00,70.0,5.9,30.06,ESE,102,5.0,17.0,8,0.00,,,0.00,26.0,meteohub,2013-02-17 00:47:00,
2013-02-16 17:52:00,69.6,5.7,30.06,ESE,119,5.0,17.0,8,0.00,,,0.00,19.0,meteohub,2013-02-17 00:52:00,
2013-02-16 17:57:00,69.3,8.1,30.06,East,100,5.0,11.0,9,0.00,,,0.00,16.0,meteohub,2013-02-17 00:57:00,
2013-02-16 18:02:00,69.1,7.9,30.06,East,97,2.0,11.0,9,0.00,,,0.00,12.0,meteohub,2013-02-17 01:02:00,
2013-02-16 18:07:00,68.5,9.9,30.06,ENE,57,2.0,11.0,10,0.00,,,0.00,9.0,meteohub,2013-02-17 01:07:00,
2013-02-16 18:12:00,68.2,7.2,30.06,East,91,1.0,11.0,9,0.00,,,0.00,5.0,meteohub,2013-02-17 01:12:00,
2013-02-16 18:17:00,67.6,6.8,30.06,ENE,61,3.0,8.0,9,0.00,,,0.00,0.0,meteohub,2013-02-17 01:17:00,
2013-02-16 18:22:00,67.5,9.0,30.06,NE,38,2.0,11.0,10,0.00,,,0.00,0.0,meteohub,2013-02-17 01:22:00,
2013-02-16 18:27:00,67.3,8.8,30.06,ENE,60,4.0,11.0,10,0.00,,,0.00,0.0,meteohub,2013-02-17 01:27:00,
2013-02-16 18:32:00,67.1,8.6,30.06,ENE,73,3.0,11.0,10,0.00,,,0.00,0.0,meteohub,2013-02-17 01:32:00,
2013-02-16 18:37:00,66.9,8.6,30.06,ENE,78,2.0,9.0,10,0.00,,,0.00,0.0,meteohub,2013-02-17 01:37:00,
2013-02-16 18:42:00,66.7,8.4,30.06,ENE,58,7.0,9.0,10,0.00,,,0.00,0.0,meteohub,2013-02-17 01:42:00,
2013-02-16 18:47:00,66.6,8.2,30.06,ENE,63,4.0,8.0,10,0.00,,,0.00,0.0,meteohub,2013-02-17 01:47:00,
2013-02-16 18:52:00,66.4,8.1,30.06,East,82,6.0,8.0,10,0.00,,,0.00,0.0,meteohub,2013-02-17 01:52:00,
2013-02-16 18:57:00,66.4,8.1,30.06,ENE,67,1.0,11.0,10,0.00,,,0.00,0.0,meteohub,2013-02-17 01:57:00,
2013-02-16 19:02:00,65.8,9.9,30.06,ENE,77,5.0,11.0,11,0.00,,,0.00,0.0,meteohub,2013-02-17 02:02:00,
2013-02-16 19:07:00,65.8,7.7,30.06,NE,54,4.0,11.0,10,0.00,,,0.00,0.0,meteohub,2013-02-17 02:07:00,
2013-02-16 19:12:00,65.8,9.9,30.06,NE,34,2.0,10.0,11,0.00,,,0.00,0.0,meteohub,2013-02-17 02:12:00,
2013-02-16 19:17:00,65.8,7.7,30.07,NE,49,4.0,10.0,10,0.00,,,0.00,0.0,meteohub,2013-02-17 02:17:00,
2013-02-16 19:22:00,65.8,7.7,30.06,NE,37,9.0,9.0,10,0.00,,,0.00,0.0,meteohub,2013-02-17 02:22:00,
2013-02-16 19:27:00,65.8,7.7,30.06,ENE,63,3.0,10.0,10,0.00,,,0.00,0.0,meteohub,2013-02-17 02:27:00,
2013-02-16 19:32:00,65.8,7.7,30.06,East,88,5.0,11.0,10,0.00,,,0.00,0.0,meteohub,2013-02-17 02:32:00,
2013-02-16 19:37:00,65.7,9.7,30.07,NE,51,3.0,11.0,11,0.00,,,0.00,0.0,meteohub,2013-02-17 02:37:00,
2013-02-16 19:42:00,65.5,7.5,30.06,ENE,59,1.0,11.0,10,0.00,,,0.00,0.0,meteohub,2013-02-17 02:42:00,
2013-02-16 19:47:00,65.5,9.5,30.06,East,92,2.0,9.0,11,0.00,,,0.00,0.0,meteohub,2013-02-17 02:47:00,
2013-02-16 19:52:00,65.1,9.3,30.06,East,82,6.0,8.0,11,0.00,,,0.00,0.0,meteohub,2013-02-17 02:52:00,
2013-02-16 19:57:00,64.9,7.0,30.06,ENE,77,3.0,9.0,10,0.00,,,0.00,0.0,meteohub,2013-02-17 02:57:00,
2013-02-16 20:02:00,64.9,7.0,30.06,ENE,62,3.0,9.0,10,0.00,,,0.00,0.0,meteohub,2013-02-17 03:02:00,
2013-02-16 20:07:00,65.1,7.2,30.06,ENE,58,5.0,9.0,10,0.00,,,0.00,0.0,meteohub,2013-02-17 03:07:00,
2013-02-16 20:12:00,65.1,7.2,30.06,NE,51,4.0,13.0,10,0.00,,,0.00,0.0,meteohub,2013-02-17 03:12:00,
2013-02-16 20:17:00,65.1,7.2,30.06,ENE,71,3.0,13.0,10,0.00,,,0.00,0.0,meteohub,2013-02-17 03:17:00,
2013-02-16 20:22:00,65.1,7.2,30.06,ENE,60,3.0,11.0,10,0.00,,,0.00,0.0,meteohub,2013-02-17 03:22:00,
2013-02-16 20:27:00,64.9,7.0,30.06,NNE,31,2.0,11.0,10,0.00,,,0.00,0.0,meteohub,2013-02-17 03:27:00,
2013-02-16 20:32:00,65.1,7.2,30.06,ENE,67,4.0,11.0,10,0.00,,,0.00,0.0,meteohub,2013-02-17 03:32:00,
2013-02-16 20:37:00,64.9,7.0,30.06,East,83,2.0,10.0,10,0.00,,,0.00,0.0,meteohub,2013-02-17 03:37:00,
2013-02-16 20:42:00,64.8,7.0,30.06,East,94,2.0,10.0,10,0.00,,,0.00,0.0,meteohub,2013-02-17 03:42:00,
2013-02-16 20:47:00,64.2,8.6,30.06,East,93,3.0,9.0,11,0.00,,,0.00,0.0,meteohub,2013-02-17 03:47:00,
2013-02-16 20:52:00,64.0,6.3,30.06,East,98,3.0,9.0,10,0.00,,,0.00,0.0,meteohub,2013-02-17 03:52:00,
2013-02-16 20:57:00,64.2,6.4,30.05,East,92,5.0,9.0,10,0.00,,,0.00,0.0,meteohub,2013-02-17 03:57:00,
2013-02-16 21:02:00,64.0,8.4,30.06,East,101,2.0,9.0,11,0.00,,,0.00,0.0,meteohub,2013-02-17 04:02:00,
2013-02-16 21:07:00,63.3,5.7,30.05,East,96,2.0,9.0,10,0.00,,,0.00,0.0,meteohub,2013-02-17 04:07:00,
2013-02-16 21:11:00,63.0,7.5,30.05,ESE,117,3.0,7.0,11,0.00,,,0.00,0.0,meteohub,2013-02-17 04:11:00,
2013-02-16 21:16:00,62.6,7.3,30.05,East,94,5.0,6.0,11,0.00,,,0.00,0.0,meteohub,2013-02-17 04:16:00,
2013-02-16 21:21:00,63.0,7.5,30.06,East,96,1.0,8.0,11,0.00,,,0.00,0.0,meteohub,2013-02-17 04:21:00,
2013-02-16 21:26:00,63.0,7.5,30.06,East,98,2.0,8.0,11,0.00,,,0.00,0.0,meteohub,2013-02-17 04:26:00,
2013-02-16 21:32:00,63.1,7.7,30.06,ESE,109,2.0,8.0,11,0.00,,,0.00,0.0,meteohub,2013-02-17 04:32:00,
2013-02-16 21:37:00,63.1,7.7,30.06,ESE,117,3.0,6.0,11,0.00,,,0.00,0.0,meteohub,2013-02-17 04:37:00,
2013-02-16 21:42:00,62.8,7.5,30.06,ESE,115,4.0,6.0,11,0.00,,,0.00,0.0,meteohub,2013-02-17 04:42:00,
2013-02-16 21:47:00,62.2,9.0,30.06,ESE,109,1.0,6.0,12,0.00,,,0.00,0.0,meteohub,2013-02-17 04:47:00,
2013-02-16 21:52:00,62.1,8.8,30.06,ESE,109,2.0,6.0,12,0.00,,,0.00,0.0,meteohub,2013-02-17 04:52:00,
2013-02-16 21:57:00,61.7,8.6,30.06,SE,124,2.0,6.0,12,0.00,,,0.00,0.0,meteohub,2013-02-17 04:57:00,
2013-02-16 22:00:00,61.5,8.4,30.06,ESE,120,3.0,6.0,12,0.00,,,0.00,0.0,meteohub,2013-02-17 05:00:00,
2013-02-16 22:05:00,61.9,6.8,30.06,ESE,113,7.0,9.0,11,0.00,,,0.00,0.0,meteohub,2013-02-17 05:05:00,
2013-02-16 22:10:00,62.4,7.2,30.06,ESE,108,3.0,9.0,11,0.00,,,0.00,0.0,meteohub,2013-02-17 05:10:00,
2013-02-16 22:15:00,62.2,7.0,30.06,ESE,111,3.0,9.0,11,0.00,,,0.00,0.0,meteohub,2013-02-17 05:15:00,
2013-02-16 22:20:00,61.7,8.6,30.06,ESE,115,3.0,7.0,12,0.00,,,0.00,0.0,meteohub,2013-02-17 05:20:00,
2013-02-16 22:25:00,61.3,8.2,30.06,ESE,117,1.0,5.0,12,0.00,,,0.00,0.0,meteohub,2013-02-17 05:25:00,
2013-02-16 22:30:00,61.0,8.1,30.06,ESE,107,3.0,5.0,12,0.00,,,0.00,0.0,meteohub,2013-02-17 05:30:00,
2013-02-16 22:35:00,60.4,7.5,30.06,ESE,112,5.0,7.0,12,0.00,,,0.00,0.0,meteohub,2013-02-17 05:35:00,
2013-02-16 22:40:00,60.4,7.5,30.06,ESE,119,3.0,7.0,12,0.00,,,0.00,0.0,meteohub,2013-02-17 05:40:00,
2013-02-16 22:45:00,60.6,7.7,30.06,ESE,106,2.0,8.0,12,0.00,,,0.00,0.0,meteohub,2013-02-17 05:45:00,
2013-02-16 22:50:00,60.4,7.5,30.06,ESE,108,3.0,8.0,12,0.00,,,0.00,0.0,meteohub,2013-02-17 05:50:00,
2013-02-16 22:55:00,60.3,9.1,30.06,East,83,3.0,8.0,13,0.00,,,0.00,0.0,meteohub,2013-02-17 05:55:00,
2013-02-16 23:00:00,59.7,8.8,30.05,East,79,1.0,7.0,13,0.00,,,0.00,0.0,meteohub,2013-02-17 06:00:00,
2013-02-16 23:05:00,59.5,8.6,30.05,ESE,103,3.0,7.0,13,0.00,,,0.00,0.0,meteohub,2013-02-17 06:05:00,
2013-02-16 23:10:00,59.4,8.4,30.05,East,99,1.0,7.0,13,0.00,,,0.00,0.0,meteohub,2013-02-17 06:10:00,
2013-02-16 23:15:00,59.2,10.0,30.05,East,88,2.0,5.0,14,0.00,,,0.00,0.0,meteohub,2013-02-17 06:15:00,
2013-02-16 23:20:00,59.2,10.0,30.04,ESE,112,3.0,5.0,14,0.00,,,0.00,0.0,meteohub,2013-02-17 06:20:00,
2013-02-16 23:25:00,59.2,10.0,30.04,ENE,69,3.0,6.0,14,0.00,,,0.00,0.0,meteohub,2013-02-17 06:25:00,
2013-02-16 23:30:00,59.4,10.2,30.04,East,93,3.0,8.0,14,0.00,,,0.00,0.0,meteohub,2013-02-17 06:30:00,
2013-02-16 23:35:00,59.4,10.2,30.04,ENE,63,2.0,8.0,14,0.00,,,0.00,0.0,meteohub,2013-02-17 06:35:00,
2013-02-16 23:40:00,58.8,11.3,30.04,ENE,63,1.0,8.0,15,0.00,,,0.00,0.0,meteohub,2013-02-17 06:40:00,
2013-02-16 23:45:00,58.3,12.2,30.04,ENE,60,1.0,7.0,16,0.00,,,0.00,0.0,meteohub,2013-02-17 06:45:00,
2013-02-16 23:50:00,57.6,11.7,30.04,ENE,60,2.0,3.0,16,0.00,,,0.00,0.0,meteohub,2013-02-17 06:50:00,
2013-02-16 23:56:00,56.8,12.4,30.04,ENE,60,1.0,3.0,17,0.00,,,0.00,0.0,meteohub,2013-02-17 06:56:00,